When you browse on this site, cookies collect data to enhance your experience and personalize the content and advertising you see.
Visit our Privacy Policy to learn more. By continuing to use the site, you agree to this use of cookies and data.
  • In Germany
  • List of Countries
  • For 7 days
  • Water Temperature
  • Satellite Maps
  • Weather Map
  • Weather Widgets
  • user-avatar
    Login

    Hourly Weather Bryski

    Today, 10 December, Monday

    Time Temperature Precipitation Wind Pressure Humidity
    00:00 +4°C° 0.1 mm 4 mps 735 mmHg 91%
    01:00 +4°C° 0.1 mm 4 mps 735 mmHg 91%
    02:00 +4°C° 0.2 mm 4 mps 735 mmHg 91%
    03:00 +4°C° 0.2 mm 4 mps 735 mmHg 90%
    04:00 +3°C° 0.2 mm 5 mps 736 mmHg 90%
    05:00 +3°C° 0.4 mm 5 mps 736 mmHg 84%
    06:00 +2°C° 0.4 mm 6 mps 736 mmHg 79%
    07:00 +2°C° 0.4 mm 7 mps 737 mmHg 74%
    08:00 +2°C° 0 mm 7 mps 737 mmHg 74%
    09:00 +2°C° 0 mm 7 mps 738 mmHg 75%
    10:00 +2°C° 0 mm 7 mps 739 mmHg 75%
    11:00 +2°C° 0 mm 7 mps 739 mmHg 73%
    12:00 +2°C° 0 mm 7 mps 740 mmHg 70%
    13:00 +3°C° 0 mm 6 mps 740 mmHg 67%
    14:00 +2°C° 0 mm 6 mps 740 mmHg 68%
    15:00 +2°C° 0 mm 5 mps 741 mmHg 68%
    16:00 +2°C° 0 mm 5 mps 741 mmHg 69%
    17:00 +1°C° 0 mm 5 mps 741 mmHg 71%
    18:00 +1°C° 0 mm 5 mps 742 mmHg 74%
    19:00 0°C° 0 mm 5 mps 742 mmHg 76%
    20:00 0°C° 0 mm 5 mps 742 mmHg 78%
    21:00 -1°C° 0 mm 4 mps 742 mmHg 80%
    22:00 -1°C° 0 mm 4 mps 742 mmHg 82%
    23:00 -1°C° 0 mm 4 mps 742 mmHg 83%

    Tomorrow, 11 December, Tuesday

    Time Temperature Precipitation Wind Pressure Humidity
    00:00 -1°C° 0 mm 4 mps 742 mmHg 85%
    01:00 -2°C° 0 mm 4 mps 743 mmHg 87%
    02:00 -2°C° 0 mm 4 mps 743 mmHg 88%
    03:00 -2°C° 0 mm 4 mps 743 mmHg 89%
    04:00 -1°C° 0 mm 3 mps 742 mmHg 90%
    05:00 -1°C° 0.3 mm 3 mps 743 mmHg 90%
    06:00 -1°C° 0.3 mm 3 mps 743 mmHg 91%
    07:00 0°C° 0.3 mm 3 mps 743 mmHg 91%
    08:00 0°C° 0.2 mm 3 mps 743 mmHg 91%
    09:00 0°C° 0.2 mm 3 mps 744 mmHg 90%
    10:00 +1°C° 0.2 mm 3 mps 744 mmHg 90%
    11:00 +2°C° 0.1 mm 2 mps 744 mmHg 89%
    12:00 +2°C° 0.1 mm 2 mps 745 mmHg 89%
    13:00 +2°C° 0.1 mm 2 mps 745 mmHg 89%
    14:00 +2°C° 0.1 mm 2 mps 745 mmHg 90%
    15:00 +2°C° 0.1 mm 2 mps 746 mmHg 91%
    16:00 +1°C° 0.1 mm 2 mps 746 mmHg 92%
    17:00 +1°C° 0.1 mm 2 mps 747 mmHg 92%
    18:00 +1°C° 0.1 mm 2 mps 747 mmHg 93%
    19:00 +1°C° 0.1 mm 2 mps 748 mmHg 93%
    20:00 +1°C° 0 mm 2 mps 748 mmHg 93%
    21:00 -1°C° 0 mm 2 mps 748 mmHg 93%
    22:00 -1°C° 0 mm 2 mps 749 mmHg 93%
    23:00 -1°C° 0 mm 2 mps 749 mmHg 93%

    Day after tomorrow, 12 December, Wednesday

    Time Temperature Precipitation Wind Pressure Humidity
    00:00 -2°C° 0 mm 2 mps 750 mmHg 93%
    01:00 -2°C° 0 mm 2 mps 750 mmHg 93%
    02:00 -2°C° 0 mm 2 mps 750 mmHg 93%
    03:00 -2°C° 0 mm 2 mps 751 mmHg 93%
    04:00 -2°C° 0 mm 2 mps 751 mmHg 93%
    05:00 -2°C° 0 mm 2 mps 751 mmHg 92%
    06:00 -2°C° 0 mm 2 mps 752 mmHg 92%
    07:00 -2°C° 0 mm 2 mps 752 mmHg 92%
    08:00 -2°C° 0 mm 2 mps 752 mmHg 90%
    09:00 -1°C° 0 mm 2 mps 753 mmHg 87%
    10:00 -1°C° 0 mm 2 mps 753 mmHg 85%
    11:00 -1°C° 0 mm 2 mps 753 mmHg 84%
    12:00 +1°C° 0 mm 2 mps 754 mmHg 82%
    13:00 +1°C° 0 mm 2 mps 754 mmHg 80%
    14:00 +1°C° 0 mm 2 mps 754 mmHg 84%
    15:00 -1°C° 0 mm 2 mps 754 mmHg 87%
    16:00 -2°C° 0 mm 2 mps 754 mmHg 90%
    17:00 -2°C° 0 mm 2 mps 754 mmHg 91%
    18:00 -2°C° 0 mm 2 mps 754 mmHg 92%
    19:00 -2°C° 0 mm 2 mps 755 mmHg 92%
    20:00 -2°C° 0 mm 2 mps 755 mmHg 93%
    21:00 -2°C° 0 mm 2 mps 755 mmHg 93%
    22:00 -2°C° 0 mm 2 mps 755 mmHg 93%
    23:00 -2°C° 0 mm 2 mps 755 mmHg 93%

    13 December, Thursday

    Time Temperature Precipitation Wind Pressure Humidity
    00:00 -2°C° 0 mm 2 mps 755 mmHg 92%
    01:00 -2°C° 0 mm 2 mps 755 mmHg 92%
    02:00 -2°C° 0 mm 2 mps 755 mmHg 92%
    03:00 -2°C° 0 mm 2 mps 755 mmHg 92%
    04:00 -2°C° 0 mm 2 mps 755 mmHg 92%
    05:00 -2°C° 0 mm 2 mps 755 mmHg 92%
    06:00 -2°C° 0 mm 2 mps 755 mmHg 92%
    07:00 -2°C° 0 mm 2 mps 755 mmHg 92%
    08:00 -2°C° 0 mm 2 mps 755 mmHg 90%
    09:00 -1°C° 0 mm 3 mps 755 mmHg 88%
    10:00 -1°C° 0 mm 3 mps 755 mmHg 87%
    11:00 -1°C° 0 mm 3 mps 755 mmHg 85%
    12:00 -1°C° 0 mm 3 mps 754 mmHg 83%
    13:00 0°C° 0 mm 3 mps 754 mmHg 81%
    14:00 -1°C° 0 mm 2 mps 754 mmHg 83%
    15:00 -1°C° 0 mm 2 mps 754 mmHg 84%
    16:00 -1°C° 0 mm 2 mps 754 mmHg 86%
    17:00 -2°C° 0 mm 2 mps 754 mmHg 86%
    18:00 -2°C° 0 mm 2 mps 754 mmHg 86%
    19:00 -2°C° 0 mm 2 mps 754 mmHg 87%
    20:00 -2°C° 0 mm 2 mps 754 mmHg 87%
    21:00 -2°C° 0 mm 2 mps 754 mmHg 88%
    22:00 -2°C° 0 mm 2 mps 754 mmHg 88%
    23:00 -2°C° 0 mm 2 mps 754 mmHg 89%

    14 December, Friday

    Time Temperature Precipitation Wind Pressure Humidity
    00:00 -2°C° 0 mm 2 mps 754 mmHg 89%
    01:00 -2°C° 0 mm 2 mps 754 mmHg 90%
    02:00 -2°C° 0 mm 2 mps 754 mmHg 90%
    03:00 -2°C° 0 mm 2 mps 754 mmHg 90%
    04:00 -2°C° 0 mm 2 mps 754 mmHg 90%
    05:00 -2°C° 0 mm 2 mps 754 mmHg 90%
    06:00 -2°C° 0 mm 2 mps 754 mmHg 91%
    07:00 -2°C° 0 mm 2 mps 754 mmHg 92%
    08:00 -2°C° 0 mm 2 mps 754 mmHg 90%
    09:00 -2°C° 0 mm 2 mps 754 mmHg 88%
    10:00 -1°C° 0 mm 3 mps 754 mmHg 86%
    11:00 -1°C° 0 mm 3 mps 754 mmHg 83%
    12:00 -1°C° 0 mm 2 mps 754 mmHg 80%
    13:00 -1°C° 0 mm 2 mps 754 mmHg 77%
    14:00 -1°C° 0 mm 2 mps 754 mmHg 79%
    15:00 -2°C° 0 mm 2 mps 754 mmHg 80%
    16:00 -2°C° 0 mm 2 mps 754 mmHg 82%
    17:00 -2°C° 0 mm 2 mps 754 mmHg 83%
    18:00 -2°C° 0 mm 2 mps 754 mmHg 85%
    19:00 -3°C° 0 mm 2 mps 754 mmHg 86%
    20:00 -3°C° 0 mm 2 mps 754 mmHg 87%
    21:00 -3°C° 0 mm 2 mps 754 mmHg 89%
    22:00 -3°C° 0 mm 2 mps 754 mmHg 90%
    23:00 -3°C° 0 mm 2 mps 754 mmHg 90%

    15 December, Saturday

    Time Temperature Precipitation Wind Pressure Humidity
    00:00 -3°C° 0 mm 2 mps 754 mmHg 90%
    01:00 -3°C° 0 mm 2 mps 755 mmHg 90%
    02:00 -3°C° 0 mm 2 mps 755 mmHg 90%
    03:00 -3°C° 0 mm 2 mps 755 mmHg 90%
    04:00 -4°C° 0 mm 3 mps 755 mmHg 89%
    05:00 -4°C° 0 mm 3 mps 755 mmHg 89%
    06:00 -3°C° 0 mm 2 mps 755 mmHg 89%
    07:00 -3°C° 0 mm 2 mps 756 mmHg 89%
    08:00 -4°C° 0 mm 3 mps 756 mmHg 87%
    09:00 -2°C° 0 mm 3 mps 757 mmHg 86%
    10:00 -2°C° 0 mm 3 mps 757 mmHg 84%
    11:00 -2°C° 0 mm 3 mps 758 mmHg 83%
    12:00 -2°C° 0 mm 3 mps 758 mmHg 81%
    13:00 -1°C° 0 mm 2 mps 758 mmHg 79%
    14:00 -2°C° 0 mm 2 mps 758 mmHg 82%
    15:00 -2°C° 0 mm 2 mps 759 mmHg 84%
    16:00 -3°C° 0 mm 2 mps 759 mmHg 86%
    17:00 -3°C° 0 mm 2 mps 759 mmHg 86%
    18:00 -3°C° 0 mm 2 mps 759 mmHg 87%
    19:00 -3°C° 0 mm 2 mps 760 mmHg 87%
    20:00 -3°C° 0 mm 2 mps 760 mmHg 87%
    21:00 -4°C° 0 mm 2 mps 760 mmHg 87%
    22:00 -4°C° 0 mm 2 mps 760 mmHg 88%
    23:00 -4°C° 0 mm 2 mps 760 mmHg 88%
    Show more